When you browse on this site, cookies collect data to enhance your experience and personalize the content and advertising you see.
Visit our Privacy Policy to learn more. By continuing to use the site, you agree to this use of cookies and data.

Stündliche Wetter Hartford

Heute, 9 August, Sonntag

Zeit Temperatur Niederschläge Wind Luftdruck Luftfeuchtigkeit
00:00 +16°C° 0 mm 2 m/S 763 mmHg 81%
01:00 +16°C° 0 mm 2 m/S 763 mmHg 83%
02:00 +16°C° 0 mm 2 m/S 763 mmHg 85%
03:00 +15°C° 0 mm 2 m/S 763 mmHg 86%
04:00 +16°C° 0 mm 2 m/S 763 mmHg 86%
05:00 +16°C° 0 mm 2 m/S 762 mmHg 86%
06:00 +16°C° 0 mm 2 m/S 762 mmHg 84%
07:00 +17°C° 0 mm 2 m/S 762 mmHg 81%
08:00 +18°C° 0 mm 2 m/S 762 mmHg 78%
09:00 +19°C° 0 mm 3 m/S 762 mmHg 75%
10:00 +20°C° 0 mm 3 m/S 762 mmHg 73%
11:00 +21°C° 0 mm 3 m/S 761 mmHg 70%
12:00 +22°C° 0 mm 3 m/S 761 mmHg 70%
13:00 +22°C° 0 mm 3 m/S 761 mmHg 69%
14:00 +24°C° 0 mm 3 m/S 761 mmHg 69%
15:00 +24°C° 0 mm 3 m/S 760 mmHg 69%
16:00 +24°C° 0 mm 3 m/S 760 mmHg 72%
17:00 +22°C° 0 mm 3 m/S 760 mmHg 74%
18:00 +22°C° 0 mm 3 m/S 760 mmHg 77%
19:00 +21°C° 0 mm 3 m/S 760 mmHg 80%
20:00 +20°C° 0 mm 2 m/S 760 mmHg 82%
21:00 +20°C° 0 mm 2 m/S 760 mmHg 85%
22:00 +19°C° 0.1 mm 2 m/S 760 mmHg 85%
23:00 +19°C° 0.1 mm 2 m/S 760 mmHg 85%

Morgen, 10 August, Montag

Zeit Temperatur Niederschläge Wind Luftdruck Luftfeuchtigkeit
00:00 +19°C° 0.1 mm 2 m/S 760 mmHg 86%
01:00 +18°C° 0.5 mm 2 m/S 760 mmHg 87%
02:00 +19°C° 0.5 mm 1 m/S 759 mmHg 89%
03:00 +18°C° 0.5 mm 1 m/S 759 mmHg 91%
04:00 +18°C° 0.1 mm 1 m/S 759 mmHg 90%
05:00 +19°C° 0.1 mm 1 m/S 759 mmHg 90%
06:00 +19°C° 0.1 mm 1 m/S 759 mmHg 89%
07:00 +20°C° 0.1 mm 1 m/S 759 mmHg 85%
08:00 +21°C° 0.1 mm 1 m/S 759 mmHg 81%
09:00 +22°C° 0.1 mm 1 m/S 759 mmHg 76%
10:00 +23°C° 0.1 mm 2 m/S 759 mmHg 72%
11:00 +24°C° 0.1 mm 2 m/S 758 mmHg 68%
12:00 +25°C° 0.1 mm 3 m/S 758 mmHg 64%
13:00 +26°C° 0 mm 3 m/S 758 mmHg 64%
14:00 +27°C° 0 mm 3 m/S 758 mmHg 63%
15:00 +28°C° 0 mm 3 m/S 758 mmHg 63%
16:00 +27°C° 0.1 mm 3 m/S 757 mmHg 66%
17:00 +26°C° 0.1 mm 3 m/S 757 mmHg 69%
18:00 +26°C° 0.1 mm 3 m/S 757 mmHg 72%
19:00 +24°C° 1.6 mm 3 m/S 757 mmHg 77%
20:00 +23°C° 1.6 mm 2 m/S 757 mmHg 83%
21:00 +21°C° 1.6 mm 2 m/S 758 mmHg 88%
22:00 +20°C° 2.2 mm 3 m/S 758 mmHg 90%
23:00 +20°C° 2.2 mm 4 m/S 758 mmHg 91%

übermorgen, 11 August, Dienstag

Zeit Temperatur Niederschläge Wind Luftdruck Luftfeuchtigkeit
00:00 +20°C° 2.2 mm 5 m/S 758 mmHg 93%
01:00 +19°C° 0.7 mm 4 m/S 758 mmHg 93%
02:00 +19°C° 0.7 mm 3 m/S 758 mmHg 92%
03:00 +19°C° 0.7 mm 2 m/S 757 mmHg 92%
04:00 +19°C° 0.1 mm 2 m/S 757 mmHg 92%
05:00 +20°C° 0.1 mm 1 m/S 757 mmHg 92%
06:00 +20°C° 0.1 mm 1 m/S 757 mmHg 92%
07:00 +21°C° 0 mm 1 m/S 757 mmHg 89%
08:00 +22°C° 0 mm 1 m/S 757 mmHg 85%
09:00 +24°C° 0 mm 1 m/S 757 mmHg 81%
10:00 +25°C° 0 mm 1 m/S 757 mmHg 78%
11:00 +26°C° 0 mm 1 m/S 757 mmHg 75%
12:00 +27°C° 0 mm 1 m/S 757 mmHg 72%
13:00 +27°C° 0.1 mm 2 m/S 757 mmHg 70%
14:00 +28°C° 0.1 mm 2 m/S 757 mmHg 68%
15:00 +29°C° 0.1 mm 2 m/S 757 mmHg 66%
16:00 +28°C° 0.5 mm 2 m/S 757 mmHg 70%
17:00 +27°C° 0.5 mm 2 m/S 756 mmHg 75%
18:00 +27°C° 0.5 mm 3 m/S 756 mmHg 79%
19:00 +25°C° 1.1 mm 3 m/S 756 mmHg 82%
20:00 +24°C° 1.1 mm 3 m/S 757 mmHg 86%
21:00 +21°C° 1.1 mm 3 m/S 757 mmHg 89%
22:00 +21°C° 0.7 mm 3 m/S 757 mmHg 90%
23:00 +20°C° 0.7 mm 2 m/S 757 mmHg 91%

12 August, Mittwoch

Zeit Temperatur Niederschläge Wind Luftdruck Luftfeuchtigkeit
00:00 +20°C° 0.7 mm 2 m/S 757 mmHg 92%
01:00 +20°C° 0.5 mm 2 m/S 757 mmHg 92%
02:00 +19°C° 0.5 mm 2 m/S 757 mmHg 93%
03:00 +19°C° 0.5 mm 2 m/S 756 mmHg 93%
04:00 +19°C° 0.1 mm 2 m/S 756 mmHg 93%
05:00 +19°C° 0.1 mm 2 m/S 756 mmHg 92%
06:00 +19°C° 0.1 mm 2 m/S 756 mmHg 92%
07:00 +20°C° 0 mm 2 m/S 756 mmHg 89%
08:00 +21°C° 0 mm 3 m/S 756 mmHg 86%
09:00 +21°C° 0 mm 3 m/S 756 mmHg 84%
10:00 +22°C° 0 mm 3 m/S 756 mmHg 79%
11:00 +25°C° 0 mm 2 m/S 756 mmHg 75%
12:00 +26°C° 0 mm 2 m/S 756 mmHg 70%
13:00 +26°C° 0 mm 2 m/S 756 mmHg 70%
14:00 +26°C° 0 mm 3 m/S 756 mmHg 70%
15:00 +26°C° 0 mm 3 m/S 755 mmHg 70%
16:00 +25°C° 0 mm 3 m/S 755 mmHg 73%
17:00 +23°C° 0 mm 4 m/S 755 mmHg 76%
18:00 +22°C° 0 mm 4 m/S 755 mmHg 80%
19:00 +21°C° 0.9 mm 3 m/S 755 mmHg 83%
20:00 +20°C° 0.9 mm 3 m/S 755 mmHg 87%
21:00 +19°C° 0.9 mm 2 m/S 755 mmHg 91%
22:00 +19°C° 1.1 mm 2 m/S 755 mmHg 91%
23:00 +19°C° 1.1 mm 2 m/S 754 mmHg 91%

13 August, Donnerstag

Zeit Temperatur Niederschläge Wind Luftdruck Luftfeuchtigkeit
00:00 +19°C° 1.1 mm 2 m/S 754 mmHg 91%
01:00 +19°C° 0.4 mm 2 m/S 754 mmHg 92%
02:00 +18°C° 0.4 mm 2 m/S 753 mmHg 93%
03:00 +18°C° 0.4 mm 2 m/S 752 mmHg 95%
04:00 +18°C° 0.7 mm 2 m/S 752 mmHg 94%
05:00 +19°C° 0.7 mm 1 m/S 752 mmHg 94%
06:00 +19°C° 0.7 mm 1 m/S 752 mmHg 94%
07:00 +19°C° 0.2 mm 2 m/S 752 mmHg 94%
08:00 +19°C° 0.2 mm 2 m/S 752 mmHg 94%
09:00 +19°C° 0.2 mm 2 m/S 752 mmHg 93%
10:00 +20°C° 0 mm 2 m/S 752 mmHg 90%
11:00 +20°C° 0 mm 2 m/S 752 mmHg 87%
12:00 +21°C° 0 mm 2 m/S 751 mmHg 84%
13:00 +21°C° 0 mm 2 m/S 751 mmHg 83%
14:00 +21°C° 0 mm 3 m/S 751 mmHg 82%
15:00 +21°C° 0 mm 3 m/S 751 mmHg 80%
16:00 +20°C° 0.2 mm 3 m/S 751 mmHg 82%
17:00 +20°C° 0.2 mm 3 m/S 751 mmHg 85%
18:00 +19°C° 0.2 mm 3 m/S 751 mmHg 87%
19:00 +18°C° 0.2 mm 2 m/S 751 mmHg 89%
20:00 +18°C° 0.2 mm 2 m/S 751 mmHg 90%
21:00 +17°C° 0.2 mm 2 m/S 751 mmHg 92%
22:00 +17°C° 0.4 mm 2 m/S 751 mmHg 93%
23:00 +17°C° 0.4 mm 2 m/S 751 mmHg 93%

14 August, Freitag

Zeit Temperatur Niederschläge Wind Luftdruck Luftfeuchtigkeit
00:00 +17°C° 0.4 mm 2 m/S 751 mmHg 94%
01:00 +17°C° 0.8 mm 2 m/S 751 mmHg 94%
02:00 +17°C° 0.8 mm 2 m/S 751 mmHg 95%
03:00 +18°C° 0.8 mm 1 m/S 750 mmHg 95%
04:00 +18°C° 0.1 mm 1 m/S 750 mmHg 94%
05:00 +18°C° 0.1 mm 1 m/S 750 mmHg 94%
06:00 +16°C° 0.1 mm 0 m/S 750 mmHg 93%
07:00 +19°C° 0 mm 1 m/S 750 mmHg 92%
08:00 +19°C° 0 mm 1 m/S 751 mmHg 91%
09:00 +20°C° 0 mm 1 m/S 751 mmHg 90%
10:00 +19°C° 0.1 mm 2 m/S 751 mmHg 89%
11:00 +19°C° 0.1 mm 2 m/S 751 mmHg 88%
12:00 +20°C° 0.1 mm 2 m/S 751 mmHg 87%
13:00 +21°C° 0.2 mm 3 m/S 751 mmHg 81%
14:00 +22°C° 0.2 mm 4 m/S 751 mmHg 76%
15:00 +23°C° 0.2 mm 4 m/S 751 mmHg 71%
16:00 +22°C° 0.1 mm 4 m/S 752 mmHg 72%
17:00 +22°C° 0.1 mm 4 m/S 752 mmHg 74%
18:00 +21°C° 0.1 mm 4 m/S 753 mmHg 76%
19:00 +19°C° 0 mm 3 m/S 753 mmHg 80%
20:00 +18°C° 0 mm 2 m/S 754 mmHg 83%
21:00 +18°C° 0 mm 1 m/S 754 mmHg 86%
22:00 +18°C° 0 mm 1 m/S 754 mmHg 87%
23:00 +16°C° 0 mm 1 m/S 755 mmHg 88%
Mehr zeigen